Location: Newark
(33.9035°S, 18.4112°E)
Time: 02:41:11
(UTC+00:00)

STARLINK-1089 - Pass Details

Date: 24 January 2020
Orbit: 348 x 351 km, 53.0° (Epoch: 23 February)

Event Time Altitude Azimuth Distance (km) Brightness Sun altitude
Exits shadow 02:26:16 16° 229° (SW) 1,022 4.9 -17.3°
Maximum altitude 02:26:46 17° 216° (SW) 1,001 5.0 -17.2°
Drops below altitude 10° 02:28:50 10° 172° (S) 1,338 6.3 -16.9°
Sets 02:31:20 0° 150° (SSE) 2,189 8.0 -16.5°
